NOAA NWS Hourly Roundups by Site

Regional Weather Roundup for Green Bay, WI

To Select Another Site Choose from List

Select Site:  

000
ASUS43 KGRB 241901
RWRGRB

NORTH-CENTRAL AND NORTHEAST WISCONSIN REGIONAL WEATHER ROUNDUP
NATIONAL WEATHER SERVICE GREEN BAY WI
200 PM CDT FRI MAY 24 2019

WIZ005-009-010>012-018-019-242000-
NORTH CENTRAL WISCONSIN

CITY           SKY/WX    TMP DP  RH WIND       PRES   REMARKS
IRONWOOD       CLOUDY    54  46  74 SE9       29.98F
MANITOWISH WTR CLOUDY    54  48  80 SE9       29.99F
ARBOR VITAE    NOT AVBL
EAGLE RIVER    CLOUDY    54  45  70 SE10G16   30.01F
LAND O LAKES   NOT AVBL
RHINELANDER    CLOUDY    56  47  71 SE10      30.02F
PHILLIPS       CLOUDY    53  50  91 SE10      29.97F
ANTIGO         NOT AVBL
TOMAHAWK       NOT AVBL
MERRILL        CLOUDY    53  50  89 SE10G18   30.01F
$$

WIZ013-073-242000-
NORTHEAST WISCONSIN

CITY           SKY/WX    TMP DP  RH WIND       PRES   REMARKS
IRON MOUNTAIN  CLOUDY    55  47  74 SE8       30.05F
MARINETTE      CLOUDY    51  47  86 E13       30.09F
OCONTO         CLOUDY    53  47  79 E6        30.07F
$$

WIZ017-030-035>037-045-242000-
CENTRAL WISCONSIN

CITY           SKY/WX    TMP DP  RH WIND       PRES   REMARKS
MEDFORD        NOT AVBL
WAUSAU         CLOUDY    53  48  83 SE10      30.00F
MOSINEE        CLOUDY    54  48  82 SE8       30.02F
MARSHFIELD     CLOUDY    54  50  86 E14G22    29.96F
WISC RAPIDS    CLOUDY    56  52  86 E12       30.00F
STEVENS POINT  NOT AVBL
WAUPACA        CLOUDY    58  52  80 E10       30.03F
SHAWANO        CLOUDY    58  49  74 SE7       30.07R
CLINTONVILLE   CLOUDY    57  49  74 E9        30.04F
WAUTOMA        CLOUDY    57  54  89 E8        29.99F
$$

WIZ038-039-048-051-242000-
FOX VALLEY

CITY           SKY/WX    TMP DP  RH WIND       PRES   REMARKS
NWS GREEN BAY  CLOUDY    56  49  77 SE9       30.08R
APPLETON       CLOUDY    55  46  71 E5        30.04S
OSHKOSH        CLOUDY    56  51  84 E9        30.03R
FOND DU LAC    CLOUDY    58  53  84 E5        30.02S
$$

WIZ022-050-052-242000-
EAST CENTRAL WISCONSIN

CITY           SKY/WX    TMP DP  RH WIND       PRES   REMARKS
EPHRAIM        NOT AVBL
WASHINGTON ISL NOT AVBL
STURGEON BAY   PTSUNNY   53  47  79 E10       30.09F
MANITOWOC      NOT AVBL
SHEBOYGAN      CLOUDY    51  49  92 E9G28     29.96F
$$

LMZ563-521-522-541>543-242000-
LAKESHORE

STATION/POSITION TIME  TEMP    WIND        PRES    VSBY  WAVE
                       AIR SEA DIR/SP/G                  HT/PER
                 (UTC) (F)     (DEG/KT/KT) (MB)    (MI)  (FT/S)
SHEBOYGAN LKSHOR 1800   44     130/  5/  6 1020.2F
KEWAUNEE LKSHORE 1830   45     100/  1/  4 1018.6R
NORTHPORT PIER   1840   44     110/  3/  5 1019.6F
N MID LAKE BUOY  1840   40 37   90/  4/  6 1020.2F
SISTER BAY LKSHO 1828   55     120/ 11/ 16   N/A
MENOMINEE LKSHOR 1830                      1018.9F
$$



 

View Past Reports for Green Bay, WI.

Products Courtesy of NOAA-NWS
NWS Information Parsing Script by Ken True at Saratoga Weather - Script by SE Lincoln Weather.